RH
25 25 24 23 22 20 19 18 18 19 19 19 18 17 17 16 19 22 24 25 26 27 29 30 30 29 28 31 35 36 35 33 35 35 35 36 36 32 30 33 36 37
23 24 24 24 23 21 20 18 18 18 18 17 16 17 17 17 19 20 21 23 24 25 27 29 30 30 29 29 32 36 37 34 34 35 34 35 37 36 33 32 32 33
23 24 24 23 22 22 20 19 19 18 17 17 16 17 18 19 19 19 20 21 22 23 25 27 28 29 30 29 29 32 35 36 35 35 35 34 35 37 37 36 34 32
23 22 22 21 21 21 20 20 19 17 17 16 16 16 18 19 19 19 19 20 20 21 24 25 26 27 28 29 29 29 32 34 35 35 36 35 34 35 37 38 38 36
22 21 21 20 21 21 20 19 18 17 16 16 16 17 18 18 20 19 18 18 18 18 20 22 23 24 25 27 27 28 29 31 33 36 36 36 35 34 35 37 38 38
22 21 21 20 21 21 20 19 17 17 16 15 16 17 17 18 19 18 18 16 16 16 17 18 19 20 21 22 24 26 27 28 30 33 35 37 37 36 35 35 36 37
21 20 20 20 21 21 21 18 17 16 16 15 16 17 17 17 17 17 17 15 15 14 15 16 17 18 17 17 19 21 23 25 27 29 31 33 36 37 36 35 34 35
19 18 19 20 21 21 20 19 17 16 15 15 15 15 15 16 15 16 15 14 14 14 14 15 15 17 17 16 16 17 19 22 24 26 28 29 31 33 35 35 34 33
19 18 18 19 20 20 19 18 17 16 16 14 14 14 14 15 14 14 14 13 13 13 13 14 15 15 16 16 15 15 16 18 19 22 25 27 29 29 31 33 32 33
20 19 18 19 19 19 19 18 18 17 16 15 14 14 14 14 13 13 13 14 14 14 15 16 16 16 16 16 16 16 16 15 17 20 23 26 28 28 29 30 30 31
21 20 20 19 19 19 18 19 19 18 17 16 15 14 13 13 13 14 15 16 16 17 17 18 18 18 17 17 17 17 17 15 16 18 21 23 26 29 29 29 28 29
21 20 19 17 18 18 18 18 19 18 17 16 15 14 14 13 13 14 15 16 17 18 18 18 18 18 19 18 18 19 18 18 18 18 18 21 23 27 29 29 27 26
20 18 17 16 16 16 16 17 17 17 16 15 15 14 14 14 14 14 15 16 17 18 18 17 18 19 19 19 19 19 18 19 19 18 18 19 21 24 27 26 26 25
20 19 18 16 16 16 16 16 16 16 16 15 15 15 16 15 15 15 16 17 18 18 18 18 19 19 19 19 19 18 19 19 19 18 18 18 20 22 23 22 22 23
21 21 19 18 18 18 17 17 17 17 17 17 17 17 18 18 18 18 19 19 19 19 19 20 20 20 18 17 17 17 17 17 17 19 18 18 19 18 19 20 19 21
23 23 22 22 21 20 20 20 20 20 20 20 19 20 21 22 22 22 22 21 20 20 21 21 20 19 17 16 16 16 17 16 17 18 18 19 19 19 20 19 20 20
26 24 24 23 22 22 21 21 22 23 24 23 22 23 25 25 25 25 23 22 23 22 22 22 21 19 17 17 16 16 17 18 17 18 19 20 21 22 22 22 21 21
32 28 26 25 24 23 23 23 24 25 25 26 26 27 27 28 28 27 25 24 25 24 24 23 21 19 17 17 17 17 18 20 21 21 22 23 23 24 23 23 22 22
38 36 33 31 28 27 26 26 26 27 27 28 29 30 31 31 30 28 26 27 28 27 24 22 21 20 19 19 19 19 21 23 25 25 25 25 25 26 26 27 27 26
45 45 43 41 38 35 33 31 30 29 29 30 33 34 34 33 32 30 28 28 29 27 25 23 23 23 23 24 23 23 24 26 27 29 29 30 30 31 32 33 33 33
47 48 48 49 48 45 43 40 37 36 35 34 36 37 36 34 34 31 30 30 31 31 29 28 27 28 29 29 30 30 31 33 35 36 36 36 36 37 38 38 38 38
44 46 48 49 50 50 48 46 44 44 41 39 39 38 39 39 37 35 34 35 35 36 35 32 31 31 33 33 35 37 39 41 42 43 43 42 41 42 42 43 43 43
41 43 44 45 46 47 47 46 46 47 46 44 42 42 43 43 40 37 37 38 38 37 37 35 33 33 35 37 38 41 44 45 45 46 46 46 45 47 47 47 48 49
41 41 41 42 43 43 44 44 45 47 48 47 46 46 45 44 41 40 40 40 39 38 38 37 36 36 38 40 41 43 44 46 47 47 47 47 48 49 50 50 52 54
41 40 39 38 38 40 41 42 43 46 48 49 49 49 47 44 42 42 42 41 40 40 41 41 41 42 43 44 45 46 47 48 48 48 47 48 49 49 50 52 54 56
41 39 38 36 36 37 39 40 41 43 45 47 50 51 48 45 43 42 42 42 42 42 44 45 46 47 48 48 49 49 50 50 50 49 48 49 50 51 51 53 55 57